Helicity
114 6 -8 -2 25 26 25 48 54 7 20 70 120 55 67 85 55 67 16 -4 6 20 17 8 30 18 12 -9 4 7 6 2 -12 -0 11 32 23 13 13 16 14 26 22 -19
61 -9 11 22 31 21 72 103 65 10 -19 -14 23 125 146 118 116 95 78 28 9 6 3 2 13 23 20 19 8 15 4 -8 -9 -4 11 25 32 12 19 4 14 16 28 1
33 37 21 62 56 56 107 123 68 23 -0 -6 45 49 17 6 90 35 64 25 -22 24 21 25 7 16 1 9 22 18 8 9 10 5 7 7 17 13 15 6 6 23 34 13
43 31 70 70 69 68 167 29 14 42 7 32 2 61 45 23 78 126 113 102 49 -2 10 25 22 1 14 -18 -9 -1 6 -1 2 4 11 13 9 8 28 33 46 30 32 18
36 34 68 49 29 49 74 -1 20 45 37 19 20 27 28 18 1 70 136 169 127 84 51 21 23 32 26 -29 -19 -17 -3 4 4 12 11 15 14 20 27 24 17 28 33 24
49 21 34 20 27 25 45 66 67 60 38 10 49 36 47 16 -3 -40 -38 97 146 78 43 11 -14 -21 9 -11 -15 -9 -12 14 12 3 3 8 24 27 22 10 13 21 33 36
30 22 38 43 49 57 43 34 37 22 20 25 39 24 16 13 -0 -28 -41 -32 100 103 29 -1 12 5 1 -1 -5 -16 -0 -1 9 16 4 -1 9 15 19 15 13 23 23 24
-1 12 41 49 41 32 44 28 34 11 16 27 53 25 34 42 15 -11 -22 -29 -3 30 117 60 -3 16 -17 5 -1 3 -12 4 19 4 5 -4 7 15 20 23 7 18 10 27
-11 34 42 24 68 83 82 97 77 88 60 38 62 48 7 21 10 25 3 -17 -44 -51 29 84 12 -0 29 38 6 23 25 -25 30 27 35 14 18 21 16 10 15 20 13 35
2 28 35 17 10 62 61 107 59 72 40 29 54 60 41 30 28 36 19 5 -2 -18 -2 12 20 -18 7 2 15 17 8 21 39 29 17 5 10 24 23 23 11 20 25 30
27 20 39 5 53 61 85 93 121 92 86 38 39 52 53 37 60 31 20 28 15 -1 -2 2 23 11 -27 -9 38 33 13 15 -5 33 43 15 21 26 30 26 12 22 27 29
48 41 72 68 63 84 82 95 103 79 75 102 92 64 92 70 52 48 40 41 43 14 -0 5 18 13 2 -58 38 53 37 64 41 53 71 55 25 33 28 25 30 33 27 24
72 73 55 55 52 72 88 105 101 109 107 97 84 61 72 75 52 50 55 55 59 41 36 25 21 39 54 21 23 96 88 77 48 67 127 75 58 43 21 25 27 30 41 59
113 107 62 26 59 74 77 71 72 78 107 141 115 93 75 57 54 50 50 53 47 42 55 46 46 37 68 68 79 60 99 109 63 70 104 74 69 50 32 25 36 38 48 57
61 69 47 44 55 55 56 59 68 77 89 98 93 95 62 68 48 51 54 51 46 43 60 57 45 26 48 54 62 94 135 87 102 95 96 105 85 74 66 50 49 47 60 57
87 81 79 73 85 88 69 47 49 47 66 58 32 10 53 30 54 51 62 62 49 41 40 54 59 41 23 36 58 101 146 90 88 99 101 104 109 112 104 95 85 69 62 63
107 100 83 57 128 132 95 45 65 82 80 99 74 27 47 20 33 63 63 42 41 52 46 49 70 55 33 31 63 82 133 99 86 101 119 132 125 132 102 107 107 90 84 103
118 123 118 101 138 117 62 80 86 92 65 87 75 88 40 38 55 47 31 22 32 42 61 56 63 51 54 80 52 74 146 130 108 92 98 110 100 123 125 129 111 112 118 141
106 124 108 71 60 60 26 84 118 114 37 71 49 20 38 43 42 21 24 38 49 86 93 110 116 127 99 49 57 56 32 88 122 119 131 105 109 105 124 116 99 140 130 172
138 130 79 98 77 58 45 110 135 112 31 92 49 30 64 69 33 51 47 89 93 110 138 109 98 104 87 79 95 90 126 112 56 69 104 111 110 132 114 131 147 162 183 154
113 120 94 109 102 76 77 116 102 56 60 37 6 20 66 64 65 39 108 118 99 100 116 87 33 16 -24 24 46 70 73 119 172 154 106 101 88 88 118 134 156 161 180 195
99 124 122 117 86 53 86 118 83 76 45 16 20 48 73 90 68 70 123 130 145 109 74 11 -21 24 33 23 -23 -58 -46 -80 26 92 103 134 125 135 149 160 156 183 209 192
100 116 102 73 66 88 50 41 36 43 22 20 66 62 49 73 70 82 92 139 103 104 132 -72 7 65 68 -2 46 42 10 13 25 21 43 31 70 47 40 77 87 71 64 49
82 83 65 76 59 33 36 17 16 11 9 15 9 33 47 45 34 55 74 107 100 -0 14 1 30 60 86 115 110 89 41 25 40 50 55 48 60 75 59 59 51 42 31 18
119 96 69 48 40 37 28 16 14 20 20 13 -3 2 24 28 34 66 59 82 -38 -51 3 5 29 57 81 59 63 62 33 30 52 45 35 34 46 62 73 83 62 35 33 38
83 65 45 26 49 59 36 11 32 22 18 19 10 -2 -8 -5 26 16 4 -51 -23 -28 -10 8 24 41 46 56 61 52 41 41 49 47 42 38 39 32 34 37 54 100 78 61
Wind_Speed
26 20 13 13 18 21 25 28 31 31 24 24 31 24 20 16 18 29 30 43 48 55 53 49 46 51 51 51 55 56 55 51 46 45 39 38 38 37 38 34 32 21 36 36
26 27 35 29 26 36 39 40 36 31 26 25 36 37 41 35 28 28 34 38 42 52 53 53 52 53 55 54 55 60 58 55 49 45 43 40 38 37 37 40 34 34 32 32
33 36 45 44 47 48 47 46 39 36 25 30 36 38 31 20 18 21 29 40 60 49 42 56 57 55 56 56 56 59 61 58 55 50 45 40 38 40 41 42 41 33 31 31
51 45 47 45 52 50 49 42 29 17 23 34 33 37 37 36 38 16 28 36 44 51 48 54 60 61 58 59 60 59 59 60 56 53 50 46 44 45 39 38 30 32 29 30
36 21 39 51 50 18 44 34 19 15 31 34 35 39 36 36 41 45 20 37 33 42 57 50 52 61 64 64 62 61 61 60 58 57 54 50 47 45 41 38 39 35 28 31
45 30 28 29 28 12 15 22 25 31 36 40 34 36 40 36 38 38 37 29 33 28 42 49 50 49 67 68 67 66 64 53 54 59 57 57 53 49 48 43 42 34 24 19
29 31 33 28 21 17 24 28 38 40 37 45 33 31 43 38 36 41 43 41 18 19 16 20 38 43 45 59 46 69 42 65 59 53 56 54 53 52 49 44 37 34 35 17
20 8 23 27 37 33 11 36 40 43 33 44 32 36 36 33 32 40 43 43 37 22 15 23 23 19 39 33 32 16 63 53 15 55 54 58 59 54 52 46 29 37 46 17
21 20 24 33 26 24 22 24 37 31 37 38 35 43 49 28 28 30 35 37 42 48 24 20 25 28 20 24 39 33 22 62 15 13 50 63 56 55 50 35 34 40 24 23
20 23 27 26 26 28 25 19 31 33 39 43 37 42 40 35 29 29 34 37 42 44 39 23 17 24 21 25 29 28 22 32 18 18 33 64 63 56 51 37 31 42 28 28
15 23 28 27 35 32 27 29 32 32 37 48 51 46 39 38 34 37 38 37 45 46 44 37 10 19 28 27 28 27 23 22 18 16 21 47 55 58 48 38 29 37 35 39
17 22 31 33 29 32 30 32 29 32 36 39 48 50 38 39 43 42 44 47 47 50 51 45 22 22 24 26 35 42 25 35 33 26 24 26 48 49 53 48 44 41 45 40
12 25 29 30 26 28 29 29 31 34 36 36 43 47 40 43 45 45 48 49 50 49 49 43 34 20 28 27 29 43 34 30 37 46 41 37 39 44 50 43 46 51 47 45
15 24 24 30 34 29 27 29 33 38 36 39 44 59 52 52 52 50 49 50 51 47 45 43 38 36 39 25 36 41 36 39 41 48 48 45 44 42 47 49 42 40 41 46
19 25 19 22 30 29 30 32 31 31 35 35 57 53 64 58 54 52 54 52 50 46 41 39 39 35 36 28 35 40 39 45 43 45 51 51 52 48 46 48 45 41 36 38
21 27 22 26 30 34 34 44 36 28 33 30 26 75 60 53 50 52 52 50 48 44 42 41 41 38 34 27 31 31 42 43 39 40 40 34 42 46 44 44 40 41 37 39
23 24 28 36 35 37 39 31 22 28 27 32 42 65 45 47 46 46 47 46 44 43 43 40 37 37 36 25 18 20 33 35 40 40 38 32 28 34 34 39 39 40 38 36
23 28 34 40 35 40 45 40 36 27 32 30 36 38 40 39 37 41 42 43 41 41 42 35 33 32 28 28 27 31 39 37 44 40 35 34 31 31 35 35 34 36 38 33
28 30 37 36 38 50 51 38 31 30 43 41 41 35 24 31 38 43 42 38 35 33 31 27 25 29 31 36 31 30 30 36 48 43 42 41 37 32 32 31 29 26 27 26
27 29 30 35 44 48 50 37 31 31 47 36 39 30 19 26 42 43 35 29 23 24 23 20 22 25 28 27 18 14 21 28 42 42 43 35 37 36 24 28 28 28 22 20
28 31 30 37 47 47 43 35 25 32 41 42 37 26 18 25 40 38 25 21 17 17 18 15 16 21 25 25 24 13 13 16 22 23 30 31 26 29 29 23 20 21 20 22
27 29 34 38 42 50 27 28 27 31 40 41 37 28 18 27 31 24 17 14 13 14 13 14 16 18 14 21 26 14 16 18 21 15 14 16 12 17 8 10 15 16 16 20
39 33 32 24 35 34 19 27 26 37 42 42 30 20 16 25 20 12 12 16 20 29 26 18 24 18 16 11 23 12 16 22 16 16 18 15 17 15 15 15 14 14 15 16
31 23 27 27 29 22 20 17 31 35 36 32 26 24 25 18 18 13 15 16 15 23 18 16 15 12 18 14 9 13 14 18 23 23 23 20 19 15 19 20 17 15 15 16
29 9 19 29 26 24 18 18 24 26 28 29 28 24 30 33 30 31 11 15 11 9 28 22 15 8 8 10 11 12 13 17 19 19 18 18 17 18 17 17 18 18 21 21
17 13 15 26 17 23 21 15 20 21 27 28 29 32 33 34 35 44 39 8 10 11 13 19 15 12 15 15 14 21 21 23 21 17 18 19 20 19 20 20 20 26 25 24
Wind_Direction
277 301 316 353 325 329 339 331 319 314 9 80 150 125 110 72 117 150 150 168 183 195 197 185 161 171 167 162 164 189 197 207 220 212 222 227 233 238 236 245 255 10 237 206
280 284 277 296 290 277 276 278 296 309 326 323 286 205 200 169 152 156 164 166 169 186 185 185 179 178 179 175 175 193 198 201 219 222 227 237 246 245 239 223 253 251 260 242
273 268 252 248 236 228 233 254 287 295 321 314 302 281 275 342 137 145 157 175 198 186 172 186 185 178 184 181 177 186 200 200 204 225 231 241 246 242 239 224 228 261 275 283
244 260 252 258 239 242 253 280 305 350 332 309 305 299 303 284 223 133 165 169 180 183 179 182 187 190 184 189 191 186 188 197 190 217 227 239 237 225 242 247 276 271 282 275
255 294 261 231 195 320 276 309 347 358 314 311 310 299 300 300 264 219 154 177 170 179 190 181 182 189 194 200 192 191 188 192 193 191 189 221 233 237 243 250 249 268 286 270
225 287 294 289 304 354 16 345 325 307 299 299 317 300 292 313 303 295 302 174 176 173 180 187 186 182 200 203 214 205 201 174 178 195 197 205 217 214 221 240 244 269 308 329
300 286 282 288 315 323 306 315 301 297 300 290 316 319 295 316 321 296 291 300 177 170 187 186 179 180 179 184 174 202 166 199 189 181 190 190 197 203 216 244 263 273 266 354
335 28 310 310 277 285 346 293 301 301 311 298 317 308 315 330 330 315 308 303 304 299 195 194 196 206 182 181 174 223 198 181 179 186 186 195 208 239 240 250 291 275 235 344
32 343 333 320 314 306 319 320 315 319 311 309 311 303 302 328 333 337 332 316 301 288 304 206 200 194 204 218 183 180 188 194 257 265 253 234 247 246 256 282 289 273 315 312
14 340 347 349 345 332 324 349 326 318 306 300 309 306 308 316 322 332 329 321 314 308 302 298 214 211 222 195 196 193 201 182 192 263 270 231 236 249 256 277 288 272 305 301
49 349 333 336 323 318 326 317 322 325 314 301 298 303 309 305 312 317 321 324 318 313 305 296 258 222 195 245 246 242 224 234 202 246 266 255 248 247 263 276 292 288 293 284
29 16 329 322 331 331 324 321 321 319 318 311 303 298 314 305 303 308 309 308 314 311 305 296 293 267 227 219 253 253 231 247 252 255 261 269 259 261 258 267 275 283 282 288
43 354 339 331 336 331 328 333 330 324 319 312 306 303 314 309 306 306 308 308 310 311 308 301 293 279 264 244 243 254 246 241 256 258 260 266 268 268 266 275 273 271 278 280
8 345 346 326 323 337 331 329 325 318 319 315 305 297 302 303 301 304 306 308 307 312 309 304 296 290 276 261 252 253 250 252 260 258 259 263 264 268 269 271 279 283 281 277
346 337 358 354 330 331 334 331 327 325 322 316 307 305 294 299 300 299 299 304 307 308 311 310 295 300 289 279 263 250 249 255 257 258 259 262 262 267 271 273 279 284 287 287
332 326 342 336 330 325 328 315 324 333 327 321 317 278 298 300 299 296 296 300 305 305 306 307 296 297 295 287 274 252 246 253 254 260 263 268 266 270 270 274 279 283 287 286
316 322 323 320 325 323 319 323 325 329 331 331 325 297 311 308 300 294 294 296 299 305 302 303 300 293 292 294 278 260 246 250 254 258 266 274 273 272 278 278 279 283 286 288
314 318 320 318 323 315 316 324 327 328 329 333 330 325 312 309 303 298 297 295 299 305 297 306 305 299 302 288 283 268 257 261 259 263 269 269 273 278 281 283 286 287 283 285
313 319 317 317 317 313 310 326 331 331 326 336 329 328 330 314 304 296 293 302 306 307 310 324 335 306 307 287 287 282 274 274 263 264 267 267 275 274 279 281 288 295 289 286
319 321 316 318 314 318 317 336 343 342 322 343 346 345 340 319 297 299 302 308 323 319 321 338 347 318 322 323 341 311 296 287 264 265 268 275 270 273 278 278 282 289 291 293
306 312 312 312 312 320 328 340 2 331 331 332 341 353 351 321 296 299 315 318 332 332 334 331 337 343 348 13 37 0 325 299 299 293 283 274 275 277 275 284 291 289 294 287
304 311 311 312 316 320 354 357 344 346 333 336 338 339 344 312 315 315 321 324 316 324 336 319 297 320 323 28 47 21 17 356 348 330 348 336 332 309 314 307 310 303 309 299
298 308 310 320 327 342 21 7 3 328 328 328 350 7 11 311 340 345 320 298 308 273 262 274 263 293 294 331 55 328 307 2 328 344 0 338 359 2 0 18 24 17 355 340
310 319 311 325 339 5 31 41 337 331 340 358 35 49 50 34 54 15 328 318 324 276 250 296 302 341 11 358 328 12 345 7 23 25 22 9 13 5 11 17 13 12 10 348
312 327 323 324 342 355 36 39 357 2 24 37 40 41 71 84 74 64 39 45 24 290 222 242 256 303 320 327 328 326 342 12 15 5 360 348 350 360 356 351 334 332 329 327
296 308 331 331 25 10 28 26 49 25 55 53 61 69 75 83 78 105 111 293 17 12 291 253 274 322 357 2 337 12 10 24 24 350 347 356 11 3 9 8 352 355 351 345